This demonstration page uses our WeatherBlox Daily Observations layout. Learn more.

38.89511, -77.03637

Hourly Observations for October 10, 2015

Temp ( °F °C ) Dew Point ( °F °C ) Humidity (%) Winds ( mph kmh ) Pressure ( in mb ) Visibility ( mi km ) Precip ( " mm )
12:52 am 00:52 Cloudy 66 18.9 59 15 78 78 NNW 8 13 30 1016 10 16.0934 0 0
1:52 am 01:52 Mostly Cloudy 65 18.3 58 14.4 78 78 NNW 9 15 30.01 1016 10 16.0934 0 0
2:52 am 02:52 Cloudy 63 17.2 55 12.8 76 76 NNW 12 19 30.01 1016 10 16.0934 0 0
3:52 am 03:52 Cloudy 61 16.1 53 11.7 75 75 NNW 10 17 30.03 1017 10 16.0934 0 0
4:52 am 04:52 Cloudy 60 15.6 54 12.2 80 80 N 12 19 30.05 1018 10 16.0934 0 0
5:52 am 05:52 Cloudy 58 14.4 50 10 75 75 NNE 13 20 30.08 1019 10 16.0934 0 0
6:52 am 06:52 Mostly Cloudy 57 13.9 46 7.8 67 67 N 17 28 30.11 1020 10 16.0934 0 0
7:52 am 07:52 Mostly Cloudy 56 13.3 45 7.2 67 67 N 10 17 30.13 1020 10 16.0934 0 0
8:52 am 08:52 Mostly Cloudy 56 13.3 43 6.1 62 62 NNE 17 28 30.15 1021 10 16.0934 0 0
9:52 am 09:52 Mostly Cloudy 57 13.9 42 5.6 58 58 NNE 17 28 30.16 1022 10 16.0934 0 0
10:52 am 10:52 Mostly Cloudy 59 15 42 5.6 54 54 NE 14 22 30.17 1022 10 16.0934 0 0
11:52 am 11:52 Mostly Cloudy 61 16.1 41 5 48 48 ENE 14 22 30.16 1022 10 16.0934 0 0
12:52 pm 12:52 Mostly Cloudy 63 17.2 42 5.6 47 47 NE 12 19 30.16 1021 10 16.0934 0 0
1:52 pm 13:52 Mostly Cloudy 64 17.8 40 4.4 41 41 NNE 9 15 30.14 1021 10 16.0934 0 0
2:52 pm 14:52 Mostly Cloudy 65 18.3 41 5 42 42 NE 7 11 30.11 1020 10 16.0934 0 0
3:09 pm 15:09 Partly Cloudy 64 18 39 4 40 40 ENE 10 17 30.12 1020 10 16.0934 0 0
3:52 pm 15:52 Partly Cloudy 65 18.3 40 4.4 40 40 VRB 6 9 30.09 1019 10 16.0934 0 0
4:52 pm 16:52 Partly Cloudy 64 17.8 40 4.4 41 41 ENE 3 6 30.09 1019 10 16.0934 0 0
5:52 pm 17:52 Partly Cloudy 62 16.7 40 4.4 44 44 ESE 8 13 30.09 1019 10 16.0934 0 0
6:52 pm 18:52 Mostly Clear 59 15 41 5 51 51 SE 5 7 30.09 1019 10 16.0934 0 0
7:52 pm 19:52 Clear 58 14.4 43 6.1 58 58 Calm 30.09 1019 10 16.0934 0 0
8:52 pm 20:52 Clear 57 13.9 44 6.7 62 62 Calm 30.1 1019 10 16.0934 0 0
9:52 pm 21:52 Clear 56 13.3 45 7.2 67 67 Calm 30.1 1019 10 16.0934 0 0
10:52 pm 22:52 Clear 55 12.8 47 8.3 74 74 Calm 30.11 1020 10 16.0934 0 0
11:52 pm 23:52 Clear 54 12.2 46 7.8 75 75 Calm 30.1 1019 10 16.0934 0 0

Powered by AerisWeather